Date String (YYYY-MM-DD hh:mm:ss) UTC,Instrument flags,Ambient pressure (hPa),Sample flow (lpm),Bypass flow (lpm),Sample temperature (°C),Ambient temperature (°C),ASC tube jacket temperature (°C),LED temperature (°C),Box temperature (°C),Sample RH (%),Span deviation,Mass concentration (μg/m³),Mass concentration (μg/m³),Mass concentration (μg/m³)
DateTimeUTC,F1_M11,P_M11,Q1_M11,Q2_M11,T1_M11,T2_M11,T3_M11,T4_M11,T5_M11,U1_M11,ZSPAN_M11,X2_M11,X0_M11,X1_M11
2021-12-10 14:00:00,,0811.9,5.00,0.00,22.4,21.6,00.0,31.5,24.1,17.7,0000.0,0005.22,0013.46,0003.98
2021-12-10 14:01:00,,0812.0,4.99,0.00,22.4,21.7,00.0,31.5,24.1,17.7,0000.0,0005.23,0013.31,0003.97
2021-12-10 14:02:00,,0812.0,5.01,0.00,22.5,22.4,00.0,31.6,24.3,17.7,0000.0,0005.28,0013.37,0003.97
2021-12-10 14:03:00,,0812.1,5.00,0.00,22.6,23.1,00.0,31.6,24.6,17.5,0000.0,0005.25,0013.42,0003.94
2021-12-10 14:04:00,,0812.1,5.00,0.00,22.7,23.1,00.0,31.6,24.7,17.4,0000.0,0005.23,0013.70,0003.91
2021-12-10 14:05:00,,0812.0,4.99,0.00,22.7,22.9,00.0,31.6,24.6,17.4,0000.0,0005.22,0014.20,0003.87
2021-12-10 14:06:00,,0812.0,5.01,0.00,22.7,22.8,00.0,31.6,24.6,17.3,0000.0,0005.19,0014.41,0003.81
2021-12-10 14:07:00,,0812.0,4.99,0.00,22.7,22.6,00.0,31.6,24.5,17.3,0000.0,0005.19,0015.23,0003.79
2021-12-10 14:08:00,,0812.1,5.00,0.00,22.7,22.5,00.0,31.7,24.5,17.3,0000.0,0005.21,0015.31,0003.77
2021-12-10 14:09:00,,0812.0,5.00,0.00,22.7,22.3,00.0,31.7,24.4,17.3,0000.0,0005.20,0015.32,0003.75
2021-12-10 14:10:00,,0812.0,5.00,0.00,22.7,22.3,00.0,31.7,24.4,17.3,0000.0,0005.14,0015.35,0003.72
2021-12-10 14:11:00,,0812.0,4.99,0.00,22.7,22.2,00.0,31.7,24.4,17.3,0000.0,0005.15,0015.38,0003.70
2021-12-10 14:12:00,,0812.1,5.00,0.00,22.6,22.1,00.0,31.6,24.3,17.3,0000.0,0005.14,0015.46,0003.69
2021-12-10 14:13:00,,0812.1,5.01,0.00,22.6,22.0,00.0,31.6,24.3,17.3,0000.0,0005.02,0015.28,0003.68
2021-12-10 14:14:00,,0812.1,4.98,0.00,22.6,21.9,00.0,31.6,24.3,17.3,0000.0,0005.02,0015.65,0003.68
2021-12-10 14:15:00,,0812.2,5.00,0.00,22.6,21.9,00.0,31.6,24.3,17.3,0000.0,0005.05,0016.02,0003.68
2021-12-10 14:16:00,,0812.2,5.01,0.00,22.5,21.9,00.0,31.6,24.2,17.3,0000.0,0005.07,0015.21,0003.69
2021-12-10 14:17:00,,0812.2,5.00,0.00,22.5,21.8,00.0,31.6,24.2,17.3,0000.0,0005.07,0015.04,0003.70
2021-12-10 14:18:00,,0812.3,5.00,0.00,22.5,21.8,00.0,31.6,24.2,17.3,0000.0,0005.10,0015.05,0003.71
2021-12-10 14:19:00,,0812.3,4.98,0.00,22.5,21.7,00.0,31.6,24.2,17.3,0000.0,0005.05,0015.26,0003.70
2021-12-10 14:20:00,,0812.3,5.01,0.00,22.5,21.7,00.0,31.6,24.2,17.3,0000.0,0005.05,0015.70,0003.71
2021-12-10 14:21:00,,0812.3,5.00,0.00,22.4,21.7,00.0,31.6,24.1,17.3,0000.0,0005.11,0015.56,0003.71
2021-12-10 14:22:00,,0812.3,4.99,0.00,22.4,21.7,00.0,31.5,24.1,17.3,0000.0,0005.12,0015.13,0003.72
2021-12-10 14:23:00,,0812.3,5.00,0.00,22.4,21.7,00.0,31.5,24.1,17.3,0000.0,0005.10,0016.10,0003.72
2021-12-10 14:24:00,,0812.3,5.01,0.00,22.4,21.7,00.0,31.5,24.1,17.3,0000.0,0005.17,0016.38,0003.73
2021-12-10 14:25:00,,0812.3,5.00,0.00,22.4,21.7,00.0,31.5,24.1,17.3,0000.0,0005.20,0016.47,0003.73
2021-12-10 14:26:00,,0812.3,5.00,0.00,22.4,21.7,00.0,31.5,24.1,17.3,0000.0,0005.19,0015.78,0003.72
2021-12-10 14:27:00,,0812.3,4.99,0.00,22.4,21.6,00.0,31.5,24.0,17.3,0000.0,0005.18,0015.72,0003.73
2021-12-10 14:28:00,,0812.3,5.01,0.00,22.4,21.6,00.0,31.5,24.0,17.3,0000.0,0005.22,0016.27,0003.74
2021-12-10 14:29:00,,0812.3,4.99,0.00,22.3,21.6,00.0,31.5,24.0,17.3,0000.0,0005.24,0015.97,0003.77
2021-12-10 14:30:00,,0812.3,5.00,0.00,22.4,21.9,00.0,31.5,24.1,17.3,0000.0,0005.26,0015.35,0003.79
2021-12-10 14:31:00,,0812.4,5.00,0.00,22.5,22.6,00.0,31.5,24.3,17.2,0000.0,0005.27,0015.25,0003.82
2021-12-10 14:32:00,,0812.4,5.00,0.00,22.6,23.3,00.0,31.6,24.6,17.0,0000.0,0005.32,0015.57,0003.84
2021-12-10 14:33:00,,0812.4,5.01,0.00,22.7,23.2,00.0,31.6,24.7,16.9,0000.0,0005.34,0016.48,0003.86
2021-12-10 14:34:00,,0812.3,4.99,0.00,22.7,22.9,00.0,31.6,24.7,16.9,0000.0,0005.40,0015.83,0003.89
2021-12-10 14:35:00,,0812.3,5.01,0.00,22.7,22.8,00.0,31.6,24.6,16.8,0000.0,0005.40,0015.75,0003.92
2021-12-10 14:36:00,,0812.3,4.99,0.00,22.7,22.6,00.0,31.6,24.6,16.8,0000.0,0005.45,0015.92,0003.94
2021-12-10 14:37:00,,0812.2,5.00,0.00,22.7,22.5,00.0,31.6,24.5,16.8,0000.0,0005.49,0016.35,0003.97
2021-12-10 14:38:00,,0812.3,5.01,0.00,22.7,22.4,00.0,31.6,24.5,16.8,0000.0,0005.55,0016.42,0003.99
2021-12-10 14:39:00,,0812.3,4.99,0.00,22.7,22.3,00.0,31.6,24.5,16.8,0000.0,0005.54,0015.90,0004.00
2021-12-10 14:40:00,,0812.4,5.01,0.00,22.7,22.2,00.0,31.6,24.4,16.8,0000.0,0005.61,0016.23,0004.00
2021-12-10 14:41:00,,0812.4,5.01,0.00,22.7,22.2,00.0,31.6,24.4,16.8,0000.0,0005.64,0016.59,0004.00
2021-12-10 14:42:00,,0812.4,4.99,0.00,22.7,22.1,00.0,31.6,24.4,16.8,0000.0,0005.62,0016.16,0004.00
2021-12-10 14:43:00,,0812.4,5.00,0.00,22.6,22.0,00.0,31.6,24.4,16.8,0000.0,0005.55,0015.69,0004.00
2021-12-10 14:44:00,,0812.4,5.00,0.00,22.6,22.0,00.0,31.6,24.3,16.7,0000.0,0005.48,0015.02,0003.98
2021-12-10 14:45:00,,0812.3,5.00,0.00,22.6,22.0,00.0,31.6,24.3,16.7,0000.0,0005.45,0015.18,0003.94
2021-12-10 14:46:00,,0812.3,5.00,0.00,22.6,21.9,00.0,31.6,24.3,16.6,0000.0,0005.41,0014.36,0003.90
2021-12-10 14:47:00,,0812.2,5.01,0.00,22.6,21.9,00.0,31.6,24.2,16.6,0000.0,0005.34,0014.73,0003.87
2021-12-10 14:48:00,,0812.2,5.00,0.00,22.6,21.8,00.0,31.6,24.2,16.6,0000.0,0005.30,0014.27,0003.84
2021-12-10 14:49:00,,0812.2,4.99,0.00,22.5,21.8,00.0,31.6,24.2,16.5,0000.0,0005.21,0014.57,0003.78
2021-12-10 14:50:00,,0812.3,5.01,0.00,22.5,21.7,00.0,31.6,24.2,16.5,0000.0,0005.14,0016.04,0003.73
2021-12-10 14:51:00,,0812.3,4.98,0.00,22.5,21.7,00.0,31.6,24.1,16.5,0000.0,0004.98,0015.85,0003.68
2021-12-10 14:52:00,,0812.3,5.00,0.00,22.4,21.7,00.0,31.6,24.1,16.5,0000.0,0004.84,0015.80,0003.61
2021-12-10 14:53:00,,0812.3,5.01,0.00,22.4,21.7,00.0,31.5,24.0,16.5,0000.0,0004.81,0015.82,0003.56
2021-12-10 14:54:00,,0812.4,5.00,0.00,22.4,21.7,00.0,31.5,24.0,16.5,0000.0,0004.73,0015.84,0003.51
2021-12-10 14:55:00,,0812.4,5.00,0.00,22.5,22.3,00.0,31.6,24.2,16.4,0000.0,0004.66,0015.75,0003.46
2021-12-10 14:56:00,,0812.4,5.00,0.00,22.6,23.0,00.0,31.6,24.5,16.3,0000.0,0004.62,0015.50,0003.42
2021-12-10 14:57:00,,0812.4,4.99,0.00,22.7,23.3,00.0,31.6,24.7,16.2,0000.0,0004.58,0016.00,0003.39
2021-12-10 14:58:00,,0812.4,5.00,0.00,22.8,23.1,00.0,31.6,24.7,16.0,0000.0,0004.52,0015.21,0003.34
2021-12-10 14:59:00,,0812.4,5.00,0.00,22.8,22.9,00.0,31.6,24.7,15.9,0000.0,0004.39,0014.72,0003.29
